Miscellaneous Local Product
Issued by NWS North Platte, NE

Home | Current Version | Previous Version | Text Only | Print | Product List | Glossary On
Versions: 1 2 3 4 5 6 7 8 9 10 11 12 13 14 15 16 17 18 19 20 21 22 23 24 25 26 27 28 29 30 31 32 33 34 35 36 37 38 39 40 41 42 43 44 45 46 47 48 49 50
000
AXUS43 KLBF 240310
MISLBF


WESTERN AND NORTH CENTRAL NEBRASKA HOURLY WEATHER ROUNDUP
NATIONAL WEATHER SERVICE NORTH PLATTE NE
1000 PM CDT THU MAR 23 2017

NOTE: "FAIR" INDICATES FEW OR NO CLOUDS BELOW 12,000 FEET WITH NO
SIGNIFICANT WEATHER AND/OR OBSTRUCTIONS TO VISIBILITY.

NOTE: STATIONS NOT REPORTING VARIABLES SUCH AS SKY/WEATHER OR
PRESSURE ARE PROVIDED BY RAWS AND APRS NETWORKS AND ARE NOT UNDER
NATIONAL WEATHER SERVICE QUALITY CONTROL.

...OBSERVATIONS IN AND NEAR THE EASTERN PANHANDLE OF NEBRASKA...

CITY           SKY/WX    TMP DP  RH WIND       PRES   REMARKS
PINE RIDGE     CLOUDY    45  43  93 N17G28    29.80R
CHADRON        CLOUDY    44  41  89 N18G31    29.82S
ALLIANCE       CLOUDY    45  42  89 N23G33    29.76R
SIDNEY         LGT RAIN  50  42  74 N31G41    29.69R
CRESCENT LAKE    N/A     49  42  76 N14G30      N/A
$$

...OBSERVATIONS IN NORTHERN NEBRASKA AND FAR SOUTHERN SOUTH DAKOTA...

CITY           SKY/WX    TMP DP  RH WIND       PRES   REMARKS
WINNER         FOG       50  48  93 NE10      29.72R VSB 3/4
VALENTINE      CLOUDY    53  43  68 N17G30    29.74R
THEDFORD       CLOUDY    58  43  56 N22G31    29.67R
AINSWORTH      CLOUDY    53  50  91 N9        29.68R
O`NEILL        CLOUDY    54  54  99 NE12      29.70R
ORD            TSTM      54  51  90 NW21G36   29.66R FOG
BROKEN BOW     TSTM      57  31  37 MISG      29.58F
VALENTINE NWR    N/A     56  43  61 N20G28      N/A
HALSEY           N/A     56  52  88 NE6G13      N/A
BUTTE            N/A     50  49  97 N10         N/A
CHAMBERS         N/A     56  55  98 CALM        N/A
EWING            N/A     55  53  95 N12         N/A
$$

...OBSERVATIONS IN SOUTHWEST NEBRASKA AND FAR NORTHEAST COLORADO...

CITY           SKY/WX    TMP DP  RH WIND       PRES   REMARKS
HOLYOKE        FAIR      63  41  45 N28G38    29.57R
IMPERIAL       PTCLDY    65  43  44 E12       29.49S
OGALLALA       PTCLDY    58  43  55 NE25G31   29.60R
NORTH PLATTE   TSTM      60  57  89 VRB7      29.63R FOG
MCCOOK         CLOUDY    67  46  47 S26G37    29.54R
LEXINGTON      CLOUDY    76  35  22 S30G43    29.48F HAZE
STAPLETON        N/A     56  53  91 N3G16       N/A
GOTHENBURG       N/A     62  54  76 N10         N/A
CALLAWAY         N/A     59  54  84 NW18        N/A
$$

...OBSERVATIONS IN CENTRAL LINCOLN COUNTY AREA...

CITY           SKY/WX    TMP DP  RH WIND       PRES   REMARKS
N.P. AIRPORT   TSTM      60  57  89 VRB7      29.63R FOG
N.P. DOWNTOWN    N/A     59  55  87 NW7G21      N/A
N.P. SOUTHEAST   N/A     60  56  86 N5G16       N/A
N.P. HILLCREST   N/A     56  54  94 NE31G45     N/A
$$

...SOME OBSERVATIONS FROM AROUND THE REGION...

CITY           SKY/WX    TMP DP  RH WIND       PRES   REMARKS
DENVER         CLOUDY    51  39  63 N31G45    29.66R
LIMON          CLOUDY    44  19  36 N6        29.59R
ASPEN          CLOUDY    34  32  92 NW6       29.79F WCI  29
LARAMIE        CLOUDY    39  29  67 N18       29.82R WCI  30
GILLETTE       CLOUDY    40 N/A N/A NE5       29.96R
CHEYENNE       CLOUDY    38  34  85 N26G36    29.81R WCI  26
SCOTTSBLUFF    LGT RAIN  46  41  82 N25G32    29.79R
GRAND ISLAND   CLOUDY    71  54  54 S33G45    29.52F
OMAHA          CLOUDY    73  50  44 S26G33    29.65R
SIOUX FALLS    CLOUDY    46  41  82 N6        29.73R
PIERRE         CLOUDY    45  37  73 N18       29.71F
RAPID CITY     CLOUDY    43  39  86 N23G30    29.89R
BISMARCK       CLOUDY    40  37  89 NW8       29.89R WCI  34
KANSAS CITY    CLOUDY    71  45  39 S23G31    29.79R
HILL CITY      LGT RAIN  64  53  67 S9        29.61F
WICHITA        CLOUDY    74  46  36 S23G33    29.71R
DODGE CITY     CLOUDY    71  46  40 S18       29.66R
OKLAHOMA CITY  PTCLDY    73  47  39 S28G36    29.73F
DALLAS         PTCLDY    77  43  29 S29G40    29.86S
AMARILLO       LGT RAIN  54  46  74 SW17G30   29.70R
$$




USA.gov is the U.S. government's official web portal to all federal, state and local government web resources and services.